Theta_e
320 321 322 321 321 321 320 319 318 316 315 313 312 311 308 307 307 306 306 306 305 305 304 305 304 304 303 302 303 304 305 307 308 308 308 307 306 305 304 303 302 301 301 302 303 304 305 306 305 303 300 299 300 299 297 297 297 298 298 297 297 296 296
320 321 321 321 321 321 321 320 318 317 315 314 312 311 309 308 307 307 306 305 305 304 303 303 303 303 304 303 303 304 304 304 306 306 306 305 305 305 305 304 304 302 302 301 301 302 302 304 304 302 301 301 301 301 298 297 297 297 297 297 297 296 296
320 321 321 322 322 322 322 321 319 318 316 314 313 312 310 309 308 307 305 304 304 304 303 303 303 303 303 303 303 303 303 303 303 304 304 304 304 304 303 304 304 304 303 302 301 302 301 302 303 301 301 300 301 302 299 297 297 296 297 297 296 296 295
320 321 321 322 322 322 322 321 321 319 317 315 314 313 311 310 308 307 306 305 304 304 304 304 303 303 303 303 302 302 302 303 303 303 303 303 303 302 302 302 301 301 302 301 301 301 301 302 303 302 300 299 299 300 298 297 297 296 296 296 295 295 295
320 320 321 322 322 322 322 322 321 320 318 316 315 314 313 311 309 307 306 305 305 305 305 304 303 303 303 303 303 302 302 302 302 303 303 302 302 301 301 300 300 299 299 299 299 299 300 301 302 301 300 299 300 300 298 298 297 296 296 296 295 295 294
320 320 320 321 321 321 322 322 322 321 320 317 316 315 314 312 309 308 307 306 306 305 304 304 303 303 304 303 303 302 301 301 301 301 301 301 301 301 301 300 299 298 298 298 298 299 299 300 300 300 300 300 300 300 299 298 297 297 296 295 295 295 294
319 320 320 320 320 321 322 322 322 322 321 319 317 316 314 312 310 309 308 307 306 305 304 304 304 303 304 303 302 302 302 301 301 301 301 301 301 301 301 300 299 299 299 298 298 297 297 298 299 299 300 300 300 301 300 298 298 298 297 295 294 294 294
319 319 320 320 320 321 321 322 322 322 322 320 319 316 313 313 311 309 308 307 306 305 305 304 304 304 304 303 303 303 303 302 302 301 301 301 301 301 301 301 300 300 300 298 297 297 297 297 297 297 298 299 300 301 300 300 299 298 297 295 295 294 294
319 319 320 321 321 321 321 322 322 322 322 321 319 316 314 313 311 309 308 307 306 306 305 304 304 304 304 304 303 303 303 302 302 302 301 301 301 301 301 301 301 300 300 298 297 297 296 297 297 296 297 297 298 300 300 300 300 299 297 296 295 294 294
320 320 320 321 321 321 321 321 322 322 323 321 318 316 315 313 311 310 309 307 307 306 305 304 304 304 304 304 304 304 303 302 302 302 302 301 301 302 302 301 301 301 300 299 298 297 297 297 297 296 296 296 297 298 298 298 299 299 298 296 296 295 294
320 320 320 320 321 321 321 322 322 323 323 322 318 316 315 314 312 310 309 308 307 306 305 304 304 304 304 304 304 304 303 303 303 302 302 302 301 302 301 301 301 300 300 300 299 298 297 297 297 296 296 295 295 296 297 297 298 298 297 296 296 295 295
320 320 319 320 321 321 321 322 323 323 324 321 318 317 315 314 313 311 310 309 307 306 305 304 304 304 304 304 304 303 303 303 304 303 302 302 302 302 301 301 301 301 300 300 299 298 298 297 297 296 296 296 296 295 296 296 297 298 297 296 296 296 295
319 320 319 320 321 321 321 322 323 324 324 321 318 317 316 314 313 312 311 309 308 306 305 304 304 304 304 304 304 304 303 303 303 303 303 302 301 302 302 301 301 300 300 300 299 299 298 297 297 297 297 296 296 295 295 296 297 297 296 296 296 296 295
319 319 320 320 321 321 322 323 323 324 324 321 319 318 316 315 315 313 312 310 309 307 306 305 304 304 304 304 304 304 303 303 303 303 303 302 301 301 301 301 301 300 299 299 299 299 299 298 298 298 297 296 296 295 294 295 295 296 296 296 296 296 295
320 320 320 321 322 322 323 324 324 324 324 321 319 318 317 316 315 314 312 311 310 308 307 305 304 304 304 304 304 303 303 302 302 302 303 303 302 301 301 301 301 300 299 298 298 298 298 298 298 298 297 296 295 294 294 294 294 295 296 296 296 296 295
320 320 321 322 323 323 323 324 324 324 325 323 320 319 318 317 316 314 313 312 311 309 308 307 305 304 304 304 304 303 303 302 303 303 303 303 302 302 302 301 301 301 300 299 299 299 299 299 298 298 298 297 295 295 294 294 294 295 296 296 296 296 296
320 321 322 323 323 324 323 324 324 324 324 324 321 319 318 318 317 315 314 313 312 310 309 308 306 304 304 304 304 303 303 303 303 303 302 302 302 301 301 301 301 301 300 300 300 300 300 300 300 299 299 298 296 295 294 294 295 295 296 296 296 296 296
322 322 323 323 323 324 324 325 325 324 324 325 322 320 319 318 317 316 315 314 313 311 310 309 307 305 304 304 303 303 303 303 302 303 302 302 301 301 301 301 301 301 301 300 300 300 300 301 300 299 300 299 297 295 295 295 295 296 296 296 296 296 296
322 323 323 323 324 325 325 325 326 325 324 325 323 321 320 319 317 317 316 315 314 312 311 310 308 307 305 304 304 303 303 303 302 302 302 302 301 301 301 301 301 301 301 300 300 300 300 301 300 300 300 300 297 296 295 295 296 296 296 296 297 297 297
323 323 324 324 325 325 325 326 326 325 325 325 324 322 321 320 318 318 317 316 314 313 311 310 309 307 306 305 304 304 303 304 303 302 302 301 301 301 301 301 301 301 300 300 300 300 300 301 301 301 301 300 298 296 296 296 296 296 296 297 297 296 296
323 324 324 324 325 326 326 326 327 326 326 326 325 323 322 321 319 318 318 316 315 313 312 310 309 308 307 306 305 304 304 304 303 303 302 301 301 301 301 300 300 300 300 300 300 300 301 301 301 301 301 300 299 297 297 296 296 296 297 297 297 296 296
323 324 324 325 325 326 326 327 328 327 327 326 326 324 323 322 320 319 318 317 315 313 312 311 310 309 308 307 306 305 304 304 303 303 303 302 301 301 301 301 300 300 300 300 299 298 298 298 298 300 301 300 299 298 297 296 296 297 297 297 297 297 296
323 324 324 325 325 326 327 328 328 328 328 327 326 325 324 322 321 320 319 317 315 314 313 312 311 311 309 307 307 306 305 304 304 303 303 303 302 302 301 301 300 300 299 298 296 295 294 295 295 297 298 299 298 298 297 296 296 296 297 297 296 296 296
324 324 325 325 326 327 328 329 329 328 328 328 327 325 324 323 321 321 320 318 316 314 313 314 315 315 311 307 305 306 306 305 304 303 302 302 302 302 302 301 301 300 299 298 296 295 295 295 295 295 296 296 297 297 296 295 295 295 295 295 295 295 296
324 325 325 326 326 327 328 328 329 329 328 328 327 325 324 323 322 321 320 319 317 315 315 316 318 317 314 308 304 305 306 306 304 303 302 302 302 302 302 302 301 301 300 300 299 298 299 299 298 297 296 296 296 296 296 294 293 293 294 294 294 295 295
325 325 326 326 326 327 328 328 329 329 329 329 327 325 324 323 322 322 320 319 318 317 317 318 319 318 315 310 305 303 305 306 305 303 303 302 301 301 301 301 301 301 301 300 300 299 300 301 301 300 299 297 296 295 295 294 291 290 291 292 293 294 294
325 326 326 326 327 327 328 329 329 329 329 329 328 326 324 323 322 321 320 319 319 319 318 319 319 318 316 312 306 302 303 305 305 304 302 301 301 301 301 301 301 301 301 301 301 300 300 300 302 302 301 299 297 296 295 295 293 291 291 292 293 294 295
325 325 326 326 327 327 328 329 329 329 329 329 329 326 324 322 322 321 320 320 320 319 318 319 319 318 316 313 307 302 302 304 305 303 301 301 300 300 301 300 300 300 301 301 302 302 302 301 302 302 302 300 299 298 297 296 295 295 294 294 294 295 295
325 325 325 326 326 327 328 329 329 330 329 329 329 326 324 322 321 321 320 319 319 318 318 319 319 317 316 314 308 302 301 303 304 303 301 300 300 300 300 300 300 300 300 300 301 301 300 299 299 300 300 300 300 299 298 297 295 293 292 291 292 292 292
324 325 325 326 326 327 328 329 330 330 330 330 329 326 324 322 321 321 320 319 318 318 318 318 318 317 315 315 310 303 301 302 303 302 301 300 299 299 298 298 298 298 299 299 299 300 299 297 297 297 298 299 300 299 298 297 295 294 291 289 289 291 291
324 325 325 326 326 327 328 330 330 330 330 329 328 326 324 323 322 321 319 319 319 319 318 317 318 317 315 315 312 305 301 302 303 302 302 301 300 299 298 296 295 295 297 299 299 299 298 296 296 297 297 299 299 299 298 297 296 295 292 290 289 291 292
325 325 325 326 327 327 329 330 330 330 329 328 327 327 325 323 322 320 319 319 319 319 317 315 316 316 315 315 313 307 302 303 304 303 303 302 301 300 299 298 295 294 294 295 296 297 296 295 296 297 297 298 299 299 298 297 296 294 292 290 289 290 292
327 327 326 327 327 328 329 330 330 330 329 328 326 326 325 322 321 320 319 319 319 318 316 315 314 316 315 315 314 308 303 303 304 304 303 303 302 302 300 300 298 296 294 292 291 292 292 292 293 296 297 298 298 298 298 297 295 293 292 290 289 290 291
329 329 328 328 328 329 330 330 330 330 329 327 326 325 324 322 321 320 320 319 318 317 316 315 314 315 315 315 315 310 304 303 305 305 305 304 304 303 302 300 300 299 297 294 292 290 290 289 290 293 295 297 298 298 297 296 294 292 292 290 289 289 291
330 330 330 330 330 330 330 330 330 329 327 326 325 324 323 322 320 320 320 319 317 315 315 314 313 314 315 316 315 312 307 304 304 304 305 305 305 304 303 302 301 300 298 296 294 291 289 289 289 290 291 292 294 295 295 293 292 292 292 291 290 291 292
330 330 330 330 329 329 329 330 329 328 326 325 324 324 323 322 320 320 320 319 317 316 315 314 313 314 315 316 315 313 310 306 303 303 304 305 306 305 304 303 302 301 299 297 296 293 291 289 288 288 288 289 289 290 291 291 292 292 293 293 293 292 292
331 331 330 330 329 329 330 330 329 328 325 325 325 324 323 323 322 321 321 320 319 317 315 314 314 314 315 316 315 314 312 308 304 303 303 304 305 305 305 304 303 302 301 299 297 297 296 293 290 288 288 288 288 288 289 290 291 292 293 294 294 293 292
Wind_Speed
9 7 5 5 5 4 4 4 3 4 5 5 6 7 7 8 8 9 9 9 9 9 10 11 11 10 10 10 10 10 9 8 7 6 6 5 5 6 6 6 6 6 6 6 5 5 4 1 2 1 2 3 2 5 7 6 5 5 5 6 8 7 8
8 7 6 6 5 5 4 3 3 3 4 4 5 6 7 7 7 7 8 8 8 8 9 10 11 11 11 10 10 10 10 9 9 8 8 7 7 6 6 5 5 5 5 6 6 5 4 3 1 1 3 3 0 2 6 6 5 5 4 5 6 7 8
9 7 7 6 5 5 4 4 3 3 3 3 4 5 6 6 6 6 6 7 8 8 9 10 10 11 10 10 10 10 10 10 9 9 9 8 8 7 7 6 6 5 5 6 7 6 5 4 4 3 4 5 3 1 4 5 5 4 4 5 6 7 9
9 8 7 7 6 5 5 4 4 3 3 3 3 4 5 5 5 5 6 6 7 8 8 8 9 9 9 9 9 9 10 10 9 9 9 8 8 8 8 8 8 7 6 6 6 7 6 5 5 4 5 6 5 3 3 4 4 4 4 5 6 7 9
10 9 8 7 6 6 5 5 4 4 3 3 3 3 4 4 4 5 5 5 6 6 7 7 8 8 8 8 8 8 9 9 9 9 9 8 8 8 9 8 7 7 6 6 6 6 5 5 5 5 6 7 6 4 4 3 3 3 4 6 7 7 8
10 9 9 7 7 6 4 4 5 4 4 4 4 3 3 3 3 3 4 4 5 6 6 7 7 8 8 8 8 8 8 9 9 9 9 8 8 8 7 7 6 6 6 5 4 4 4 4 5 6 7 7 6 5 5 4 4 3 3 7 8 7 9
11 10 10 8 7 6 4 4 4 4 5 5 5 5 5 4 2 3 3 4 5 6 6 7 7 7 7 8 8 8 8 8 8 8 8 8 7 6 5 5 5 5 4 4 4 4 4 5 5 6 7 7 6 6 6 5 4 3 4 8 8 7 9
11 11 10 9 7 6 5 4 4 4 4 5 6 6 6 4 3 4 5 5 6 6 6 7 7 7 7 7 7 7 7 6 6 6 6 6 6 5 5 4 4 4 4 4 4 4 5 5 5 6 6 6 5 5 6 6 6 5 5 8 8 7 9
11 11 11 9 8 7 5 5 5 5 5 5 7 7 6 5 5 5 6 6 6 6 6 6 6 6 6 7 6 7 6 6 6 6 6 6 5 5 4 3 3 4 4 3 4 4 4 4 4 5 6 6 5 4 5 5 5 5 6 8 9 8 10
13 12 11 10 9 8 7 6 6 5 6 7 8 7 6 6 6 7 6 6 6 6 6 6 6 6 6 6 6 6 6 5 5 5 4 5 4 4 3 3 3 3 3 3 3 3 4 4 3 4 5 5 5 5 4 4 5 6 7 9 10 10 12
14 13 12 11 10 9 8 8 7 7 7 9 9 8 8 7 7 8 7 7 7 6 7 6 6 6 6 5 5 5 5 5 5 4 4 4 4 3 3 3 3 3 2 2 2 2 3 3 3 3 4 4 4 5 5 5 5 7 9 10 11 12 14
14 14 13 11 10 10 9 9 8 8 8 10 10 9 9 9 9 9 8 8 7 7 7 7 7 6 6 5 5 5 5 5 4 4 4 3 3 3 3 2 2 2 1 1 1 1 1 2 3 3 3 3 3 3 5 6 6 7 10 12 12 13 14
15 15 13 12 11 11 10 9 9 9 9 10 11 10 10 11 10 9 9 8 8 8 7 7 7 7 6 6 6 5 5 5 5 4 4 3 3 3 3 2 2 2 1 1 0 0 1 1 2 3 3 3 3 3 5 7 7 9 11 12 13 14 14
16 15 14 13 12 11 10 9 9 8 9 10 11 11 11 11 11 10 9 9 8 8 8 8 7 7 6 6 6 6 6 6 5 5 4 4 4 3 3 3 3 2 1 1 1 1 1 2 2 3 3 4 4 5 6 7 9 11 13 12 13 14 14
17 16 14 13 13 12 11 10 9 9 9 11 11 11 11 12 11 10 10 9 9 8 8 8 8 7 7 7 7 6 6 6 6 5 5 5 5 4 4 4 4 3 2 2 2 2 2 2 3 4 4 4 5 6 6 8 10 12 13 14 14 15 14
17 16 15 14 14 13 12 11 10 10 10 11 11 12 12 12 12 11 11 10 10 9 9 9 8 8 7 8 7 7 7 7 7 6 6 6 6 6 5 5 5 4 4 4 4 4 3 3 4 4 5 5 6 6 6 8 9 11 14 15 15 15 15
18 17 16 16 15 14 13 12 11 11 11 11 12 12 12 12 12 12 12 11 11 10 10 10 9 8 8 8 8 8 8 8 8 7 7 7 7 6 6 6 6 6 5 5 5 5 5 4 4 5 5 5 6 6 7 8 9 11 13 15 16 16 16
19 18 18 17 16 15 14 13 12 12 11 12 12 13 13 13 13 14 13 12 11 11 11 11 10 10 9 9 9 8 8 8 8 8 8 8 7 7 7 7 7 7 7 6 6 6 6 5 6 6 6 6 6 7 8 9 9 10 12 15 17 17 17
20 19 19 18 16 16 15 14 14 13 12 13 13 13 14 14 14 14 14 13 13 12 12 11 11 10 10 10 10 9 9 9 9 9 9 9 9 8 8 8 8 8 8 8 7 7 7 6 7 6 6 7 7 7 8 9 10 11 12 14 16 17 17
21 20 19 18 17 16 16 15 15 14 13 13 14 14 14 15 15 15 14 14 14 14 13 12 12 11 11 11 11 10 10 10 10 10 10 10 10 10 9 9 9 9 9 9 8 8 7 7 7 7 7 7 7 8 9 9 10 11 12 13 14 16 16
21 20 19 19 18 17 16 16 15 14 14 14 15 15 14 15 16 15 14 15 15 15 14 14 13 12 12 11 11 11 11 11 10 10 10 10 10 11 11 11 10 10 10 9 9 8 7 7 7 7 8 7 7 8 9 9 10 11 12 13 14 15 16
21 20 20 19 18 17 17 16 15 15 15 15 15 15 15 15 15 15 15 16 16 16 16 15 15 15 13 12 12 11 11 11 11 11 11 11 11 11 12 12 11 11 11 11 12 12 11 10 9 8 8 8 8 9 9 9 10 11 12 13 14 14 15
20 20 20 20 19 18 17 16 16 16 15 15 15 15 15 15 15 16 16 16 17 17 18 19 19 18 16 14 13 11 11 11 11 11 11 11 12 12 13 12 12 13 14 15 17 17 15 14 13 12 10 9 9 9 9 10 10 11 12 12 13 14 15
21 21 21 20 19 18 18 17 17 16 16 16 15 15 16 16 16 16 16 17 17 18 20 22 22 21 19 17 15 12 11 11 11 12 12 12 12 12 13 13 12 13 15 17 18 18 17 16 16 14 13 13 13 12 11 11 11 11 11 12 13 14 15
22 21 21 21 20 19 19 18 18 17 16 16 16 17 18 17 16 16 16 16 16 18 22 25 24 21 20 20 19 15 12 11 12 12 12 13 13 12 12 12 12 13 14 15 15 16 16 16 16 16 15 15 15 15 14 13 12 12 12 13 14 15 16
22 22 22 21 20 20 19 19 18 17 16 16 17 18 18 17 17 17 16 15 16 20 25 27 25 22 21 21 21 19 15 13 12 13 13 13 13 12 12 12 12 13 13 14 15 15 15 15 16 16 16 16 17 18 17 16 15 15 14 14 16 17 16
23 22 22 21 20 20 20 19 19 17 16 16 17 18 19 20 18 16 15 16 20 25 27 27 26 24 24 22 22 22 19 15 13 14 14 13 13 13 13 13 13 13 13 14 14 15 14 14 14 14 14 14 15 16 17 16 15 15 16 16 17 18 17
23 22 21 21 20 20 20 20 19 18 16 16 17 19 22 22 20 19 20 23 25 26 28 28 26 25 25 23 22 23 21 18 15 15 14 15 14 14 14 14 14 14 14 14 14 14 14 12 12 13 13 13 14 14 14 14 13 13 14 15 16 17 18
22 22 22 21 21 21 21 21 20 18 17 16 16 19 23 24 24 25 26 25 25 25 27 29 27 25 25 23 22 24 24 20 17 16 15 15 15 15 15 15 15 15 15 15 15 16 17 14 12 13 13 14 14 14 13 13 14 14 13 14 16 18 20
22 23 22 22 22 22 21 21 19 17 17 16 17 20 23 24 23 22 22 23 24 24 26 29 27 25 25 24 23 26 25 20 17 17 16 16 16 15 16 17 16 15 15 15 16 18 19 17 15 14 15 15 14 14 13 12 13 15 15 15 16 18 20
22 22 22 22 22 22 21 19 17 17 18 18 18 20 21 19 16 17 20 22 25 25 26 28 28 25 25 25 25 26 24 19 17 17 16 16 16 15 17 19 19 18 16 15 16 18 20 19 16 15 15 15 14 14 13 11 11 14 16 17 17 18 20
21 21 21 22 22 21 20 18 17 17 18 18 16 15 15 13 13 17 22 23 26 27 24 24 26 25 25 25 26 26 23 18 17 17 16 15 15 15 15 18 21 21 19 18 19 20 21 20 17 15 15 15 15 14 12 10 11 14 17 19 19 18 20
21 21 22 21 21 20 19 17 17 16 15 15 13 11 12 12 14 19 23 23 25 28 24 21 24 26 24 25 27 27 24 19 17 17 15 14 14 14 14 15 18 20 20 19 20 22 22 21 19 16 14 15 15 13 10 9 12 16 18 20 20 19 20
20 21 22 20 18 17 16 15 15 14 12 12 12 12 14 16 16 18 19 18 21 26 25 22 23 25 24 24 27 29 26 22 19 17 15 14 14 13 13 14 15 17 18 17 17 19 21 21 20 18 17 16 15 15 13 14 17 20 20 21 21 19 20
18 18 18 17 15 15 14 13 13 12 12 11 12 14 16 16 16 16 15 15 17 20 21 21 22 25 24 23 25 29 30 26 22 18 15 15 14 13 13 13 13 15 17 17 16 16 18 19 19 20 20 19 19 19 20 21 22 22 20 20 19 18 19
15 15 13 13 14 13 13 12 12 13 13 13 14 15 15 15 15 15 14 13 13 15 16 18 21 24 24 23 24 28 30 29 27 23 19 16 15 14 13 13 13 15 18 18 17 16 16 18 20 21 22 21 21 22 22 23 23 22 19 17 16 18 19
14 14 12 13 14 14 13 13 13 13 13 14 14 14 13 13 13 13 13 12 11 11 12 14 18 22 23 22 24 26 28 29 30 28 25 21 17 14 13 12 13 16 18 18 17 16 16 18 19 21 21 20 20 21 22 24 24 21 17 15 15 17 19
Wind_Direction
157 151 151 144 139 133 126 118 104 91 80 72 72 71 64 64 68 66 69 73 75 77 77 76 73 71 71 68 67 64 62 61 60 67 69 65 69 62 53 54 56 54 47 37 16 350 324 299 131 120 34 24 22 27 17 4 4 358 354 358 356 357 357
160 157 158 155 155 152 147 142 127 110 91 82 81 78 69 65 71 71 72 76 79 81 81 82 81 79 78 74 72 71 69 68 62 64 67 60 58 57 49 45 42 44 50 42 25 14 354 331 5 59 6 353 328 31 16 2 352 348 345 349 350 355 355
168 168 165 163 168 166 163 162 151 137 113 100 91 83 74 67 73 78 78 80 85 88 88 90 89 86 85 82 79 78 78 76 71 69 69 65 60 56 51 47 41 36 38 38 24 17 14 350 343 5 2 351 334 354 13 1 352 350 350 346 347 351 351
178 178 177 175 180 180 177 176 171 163 149 134 111 94 84 75 75 84 86 86 89 93 95 95 95 94 92 89 85 83 82 81 80 77 74 72 69 64 59 53 50 46 37 37 29 15 15 7 347 343 1 354 331 331 12 1 352 358 359 352 351 351 348
188 187 187 187 186 186 184 183 181 177 171 164 146 121 103 87 80 88 94 93 94 98 100 100 100 100 98 95 89 84 82 80 79 79 75 72 69 66 62 57 56 56 47 41 35 23 16 7 350 340 352 351 333 341 11 359 346 4 5 353 350 350 346
195 197 193 191 191 189 191 193 194 191 187 183 175 157 133 109 91 100 112 110 109 110 109 108 105 103 100 95 90 84 80 78 78 80 77 72 69 68 66 63 62 61 57 49 38 31 19 3 358 348 346 346 336 336 353 356 352 3 6 353 346 342 343
198 200 196 193 191 193 199 206 209 206 200 195 184 169 152 140 125 134 146 138 130 125 120 118 113 108 104 98 93 90 85 83 84 86 85 80 76 75 77 79 77 74 71 61 46 36 28 18 14 359 346 343 335 332 345 353 352 355 353 349 343 335 337
201 202 201 202 201 203 211 217 222 219 208 198 186 173 161 158 161 166 165 155 145 139 131 128 121 115 114 109 106 104 99 98 99 98 97 95 91 89 92 95 91 84 78 66 55 43 35 30 24 8 355 349 343 341 349 346 345 353 344 337 336 333 333
206 205 206 210 214 220 230 233 232 226 211 195 185 179 173 173 175 175 174 165 157 151 143 137 131 127 126 123 120 118 115 112 111 111 110 107 105 103 98 96 92 84 76 66 59 50 40 34 29 19 11 3 349 341 345 340 339 347 343 337 333 330 333
211 211 211 214 220 228 236 239 239 229 212 196 188 190 191 188 182 177 177 172 162 158 152 146 142 139 137 135 133 130 127 127 123 121 124 122 119 115 106 99 93 83 77 68 61 57 44 35 33 26 21 14 355 340 337 334 333 333 334 337 331 327 332
213 214 214 217 222 227 232 238 239 230 212 199 197 205 205 196 188 182 179 176 167 162 159 155 153 151 145 144 144 140 139 141 139 137 138 137 134 129 120 110 102 89 83 80 68 62 46 32 26 19 18 13 357 347 335 322 323 329 330 329 325 323 325
211 212 214 217 220 226 233 237 236 227 212 202 206 215 207 196 193 188 183 181 173 167 164 162 162 161 156 154 155 154 157 158 157 158 158 155 155 154 142 131 124 109 106 116 83 51 37 22 10 2 4 1 349 341 328 313 307 321 327 322 318 319 317
209 211 213 216 220 228 235 235 231 223 214 207 212 219 209 197 196 192 186 183 178 173 171 169 168 168 167 165 167 171 174 177 177 174 175 174 177 178 172 166 155 140 155 178 164 336 324 345 350 348 348 347 338 323 315 308 299 306 316 315 311 313 314
208 210 213 217 223 231 235 233 227 219 215 214 216 218 211 202 199 195 191 187 183 180 177 176 175 174 176 174 175 180 184 189 192 188 190 193 192 195 197 197 187 176 183 217 247 261 284 309 316 324 332 335 334 327 316 309 303 304 311 316 314 312 313
206 210 214 218 224 230 231 230 227 220 215 217 220 216 207 204 202 198 196 193 189 188 185 182 181 179 182 183 181 186 192 196 201 199 201 205 204 204 209 214 209 203 209 225 247 263 285 305 309 317 326 329 327 327 319 310 307 306 309 316 317 315 316
206 210 216 221 225 228 229 229 229 224 217 218 221 215 206 207 208 203 202 200 196 194 190 188 188 186 187 190 190 193 196 201 207 208 211 215 213 210 216 222 218 215 223 230 241 257 267 280 299 308 315 321 318 316 316 309 304 304 307 312 316 318 319
208 213 218 222 225 228 230 230 228 226 220 216 219 219 213 210 211 209 208 205 202 200 196 193 194 192 192 195 199 202 203 206 211 214 218 220 219 219 221 227 227 223 228 235 241 249 253 260 280 293 301 312 311 307 310 306 298 297 302 306 312 316 318
212 216 219 223 226 227 229 230 229 227 223 219 218 220 218 213 212 214 214 210 207 206 203 200 198 197 197 199 202 207 209 212 215 220 224 224 224 226 226 230 232 227 229 237 241 247 250 256 271 282 289 301 309 308 305 302 297 295 297 301 306 312 314
215 218 220 224 227 228 230 231 230 228 227 223 220 221 221 216 215 217 217 213 211 209 207 206 205 203 202 201 203 208 211 215 219 222 225 227 228 229 230 232 233 230 231 235 238 243 249 255 266 275 279 288 299 304 302 300 298 297 297 300 305 310 314
217 220 223 225 227 229 231 232 232 233 231 223 221 224 223 219 220 222 218 215 213 211 208 207 209 209 207 205 204 206 211 215 220 223 226 229 231 231 233 234 234 232 232 235 238 241 248 254 260 267 272 279 289 296 299 300 301 302 303 305 309 312 315
220 223 225 226 228 230 232 233 234 234 232 225 224 226 224 221 223 224 220 216 215 212 209 207 209 210 210 211 210 209 211 215 220 225 227 230 232 233 235 236 235 235 234 233 233 234 241 251 259 267 270 271 280 290 296 300 303 305 306 309 312 313 314
221 223 225 227 229 231 233 234 233 232 231 228 227 229 227 222 221 222 221 217 213 213 213 211 211 211 209 210 213 215 215 216 220 226 230 232 234 234 236 237 237 235 232 229 231 236 241 246 253 262 269 273 279 287 293 298 303 306 308 310 312 314 315
221 223 225 228 230 232 232 232 232 232 231 230 230 230 227 222 221 222 222 218 213 214 218 221 223 224 219 211 212 217 219 219 221 227 232 234 235 236 237 239 239 237 236 237 242 250 253 253 256 258 261 267 274 282 291 296 299 302 305 308 311 314 313
221 224 226 229 231 232 232 232 231 231 232 232 230 230 229 227 224 223 221 219 215 215 223 231 235 237 232 221 215 216 221 224 224 227 232 235 237 239 238 239 241 240 240 242 247 255 259 259 261 261 263 267 270 273 279 286 293 298 301 303 307 310 309
222 225 227 230 232 232 233 233 231 230 231 230 231 235 238 233 225 223 223 220 216 222 234 242 243 240 236 229 223 219 221 227 227 227 232 235 238 242 241 240 241 240 240 239 241 249 257 261 265 267 269 273 273 271 270 271 276 283 291 299 302 302 304
224 226 228 230 232 233 234 233 231 232 231 230 232 238 240 236 229 224 219 217 225 237 246 250 247 240 235 230 226 223 223 227 230 229 232 236 239 241 242 242 242 241 242 240 239 243 248 255 263 268 270 271 271 271 271 269 268 270 275 282 288 292 298
225 227 229 231 233 234 234 234 234 234 233 229 229 233 239 240 234 223 217 231 248 250 248 251 249 241 235 230 225 224 223 227 233 233 232 235 238 239 239 241 242 244 244 242 239 240 243 247 252 257 259 259 260 263 267 268 268 268 268 267 271 280 289
226 228 231 232 233 235 235 236 236 235 233 230 227 235 245 245 237 234 239 248 252 247 245 251 251 241 234 230 225 225 225 225 231 235 234 234 235 237 238 239 242 246 246 245 243 240 240 245 251 253 253 252 252 254 257 257 258 261 261 259 264 274 284
226 229 231 232 234 236 236 237 237 235 234 232 228 236 248 247 243 245 247 245 244 242 245 252 251 241 235 230 225 225 225 225 231 234 234 235 234 235 237 237 240 244 246 247 248 245 244 248 256 259 258 256 255 255 255 253 256 263 266 266 271 281 289
226 229 231 233 235 237 238 239 237 232 232 231 229 237 247 249 246 243 238 240 248 249 248 252 252 242 234 229 223 223 223 224 230 234 234 235 234 234 236 237 238 242 245 248 249 249 251 252 253 256 257 258 257 256 257 257 261 271 280 282 283 289 298
228 229 231 234 236 237 238 238 234 232 233 234 235 241 246 244 237 234 238 248 256 254 249 252 252 243 235 230 224 220 220 222 227 233 235 235 234 235 239 242 244 243 242 245 247 248 252 253 250 250 255 258 257 257 257 254 255 269 284 291 294 298 305
228 230 232 234 235 237 239 237 234 234 236 237 240 244 242 232 228 243 256 262 259 251 244 247 250 244 236 233 227 219 217 221 226 230 234 234 234 235 238 245 252 252 247 244 244 247 251 252 248 247 252 254 254 257 258 250 253 268 284 294 298 301 306
224 228 232 234 236 237 237 236 234 233 234 238 241 240 237 235 239 251 261 263 256 249 241 239 247 247 237 233 230 221 216 220 226 229 232 234 235 238 239 240 249 257 258 252 247 248 252 253 250 246 248 251 254 259 255 246 259 275 285 293 297 298 303
220 226 231 234 236 235 233 236 237 232 231 236 236 234 239 244 247 251 254 251 247 248 244 237 243 249 242 235 231 223 217 220 225 228 232 234 236 242 246 243 245 253 259 259 254 251 251 254 252 247 245 246 249 255 254 255 269 280 285 290 294 296 300
221 226 231 231 231 233 236 240 235 226 228 232 232 237 241 243 246 248 247 241 240 245 246 239 240 247 247 241 233 226 222 222 223 227 233 238 240 243 247 249 248 250 255 260 261 256 252 253 252 249 248 247 247 250 255 262 272 278 280 283 286 288 291
221 225 227 226 230 235 236 234 224 221 230 234 234 238 238 235 240 244 242 238 235 234 236 240 243 247 248 244 237 231 228 227 227 228 232 238 244 248 250 253 253 252 254 260 265 264 258 254 252 252 254 253 253 255 259 264 269 270 270 272 273 276 282
224 226 227 228 234 236 233 229 226 226 231 232 231 237 236 233 237 239 235 234 232 223 221 232 245 252 250 244 238 234 232 231 231 232 235 240 244 249 252 253 252 253 256 262 268 269 263 257 254 255 258 258 257 257 258 260 263 262 259 258 260 266 274